Vorticity
15 16 30 29 35 23 11 10 3 15 3 13 9 -47 22 4 4 31 32 42 14 20 20 35 36 42 36 22 17 -4 8 4 13 13 12 4 5 11 13 6 4 4 10 15 17 15 17 22 19 30 28 31 20 11
14 29 32 18 35 12 10 18 19 17 15 -1 17 -9 7 -16 5 -38 -20 27 4 -6 10 3 -19 2 10 13 9 6 8 7 14 9 7 13 15 8 6 7 10 18 12 13 13 16 17 19 29 31 16 12 8 8
28 27 -16 53 18 16 5 12 10 11 7 33 56 59 51 4 3 18 23 7 23 5 -6 3 -3 16 5 -3 9 8 8 14 1 7 11 8 3 1 5 14 16 12 10 18 18 19 27 25 13 14 9 11 6 10
18 23 37 20 16 9 7 11 11 14 10 -22 -34 -28 16 16 -6 7 7 10 20 -5 10 -7 4 -6 5 22 -1 4 10 -0 10 13 6 2 3 13 18 12 11 7 19 14 30 8 18 18 6 11 7 1 3 7
19 32 32 13 17 10 11 6 16 10 21 -15 -41 -5 14 1 31 12 26 -1 20 40 -14 34 18 7 11 12 7 1 7 13 6 5 4 12 21 17 14 13 8 16 26 20 20 9 11 10 10 6 5 6 7 6
44 29 13 11 22 10 12 15 23 -1 -10 -12 25 59 5 9 21 7 4 -5 3 11 7 10 9 3 1 9 7 10 10 10 7 7 16 15 12 15 13 21 17 22 14 9 8 6 11 7 5 10 9 9 12 13
19 11 17 15 12 7 22 17 10 20 39 -7 -5 5 -12 12 22 4 6 16 17 22 16 17 12 11 12 10 8 9 10 14 20 15 10 10 11 19 23 15 8 8 9 8 8 10 12 9 8 6 8 7 7 4
12 11 13 11 12 9 10 27 -3 9 -2 -4 22 13 1 3 25 32 19 14 15 10 9 9 10 7 5 7 11 12 13 10 10 9 10 18 22 13 13 10 9 9 12 14 11 11 10 10 10 11 10 8 6 8
12 4 11 9 19 6 -27 7 14 5 10 -20 12 17 26 -14 -13 5 -9 1 6 9 10 10 13 16 15 12 14 12 9 11 5 19 20 15 11 5 11 13 15 11 12 11 11 13 13 14 13 13 14 16 16 18
9 8 14 8 14 -11 7 10 7 -8 4 15 15 -4 -10 9 -0 8 9 -3 3 7 7 10 16 14 15 11 9 9 13 24 16 9 9 14 9 10 15 13 10 8 10 13 13 15 14 17 19 19 19 16 15 13
11 21 7 19 2 1 1 3 -7 -6 -2 18 -4 4 -4 -1 -1 -6 9 11 12 15 13 10 13 11 9 9 23 20 7 9 12 8 13 10 7 11 5 4 5 8 9 8 9 13 16 15 12 6 10 12 12 11
-3 11 4 32 -19 2 -1 13 13 -9 -5 4 11 -7 -7 5 11 16 13 15 13 13 12 8 7 20 23 9 6 8 11 8 7 11 9 9 6 7 8 9 9 9 9 10 11 12 12 13 15 16 13 10 7 4
19 27 23 -7 -11 -13 -0 24 5 -0 14 -15 -9 3 21 13 14 19 21 15 11 8 21 19 10 5 7 9 15 7 10 12 11 9 8 8 10 9 9 8 9 11 12 14 15 17 19 16 12 11 13 13 12 10
6 6 9 17 19 3 13 22 -2 -6 6 26 18 15 17 24 13 7 10 22 16 7 5 7 10 14 15 12 12 11 11 12 11 10 10 10 8 7 6 6 6 7 8 12 14 15 21 18 18 17 14 13 11 9
17 23 13 10 1 1 -2 13 18 14 15 17 12 8 6 6 21 16 8 10 12 15 16 16 14 12 11 10 10 9 10 7 9 9 7 5 3 3 3 4 5 6 10 16 17 17 15 15 16 17 16 16 16 17
-2 0 4 7 11 9 9 16 14 10 15 8 8 22 12 11 14 16 17 17 16 14 13 11 10 11 9 10 9 10 8 8 7 6 5 5 5 4 4 4 5 10 16 19 16 15 15 15 16 17 18 19 21 22
16 17 25 23 23 19 13 7 6 10 20 18 14 16 16 16 19 17 12 11 8 9 9 7 7 5 7 6 10 9 9 8 7 6 7 7 6 5 4 4 9 18 18 21 23 25 27 29 30 30 28 27 25 23
9 5 4 4 5 10 14 14 14 8 6 9 12 16 13 8 5 5 6 9 6 7 7 6 5 8 8 9 9 7 7 7 6 6 7 7 5 4 4 8 16 21 26 29 25 23 24 25 25 26 26 24 24 23
15 15 15 13 11 10 10 11 14 17 19 13 7 5 4 3 5 6 7 7 8 7 9 9 9 8 9 9 8 8 7 7 6 5 6 5 5 4 6 14 20 27 26 27 29 27 25 24 24 23 23 25 24 24
11 12 13 13 17 19 17 14 10 7 4 1 3 5 7 9 8 8 8 8 7 6 9 8 7 6 8 7 7 6 6 5 5 5 5 5 5 4 10 18 26 26 24 29 27 27 29 28 27 25 22 19 17 16
14 16 13 12 7 6 8 1 3 5 4 8 7 9 7 6 6 7 6 6 7 4 7 7 8 7 7 7 6 6 6 6 5 6 6 5 4 5 12 23 28 21 25 31 26 18 15 18 19 19 19 19 19 20
8 5 4 3 5 7 10 7 8 7 9 5 8 6 4 6 6 8 5 6 7 8 8 8 7 8 8 8 7 6 6 6 5 5 5 5 3 6 15 25 26 21 27 30 21 16 19 20 20 19 18 17 16 15
7 9 7 7 8 7 5 8 6 6 6 7 6 6 6 7 8 8 7 8 7 8 7 7 7 7 8 8 7 7 6 6 6 6 6 6 4 7 17 27 23 22 25 28 21 16 18 20 18 17 15 14 12 11
8 9 7 5 6 5 5 5 5 5 5 6 7 6 7 7 7 7 7 9 6 8 8 8 7 7 7 7 7 7 8 8 6 6 6 5 4 7 16 28 23 20 20 25 26 19 16 18 18 16 14 12 11 11
6 4 5 5 4 5 6 6 6 6 7 7 8 7 8 9 9 11 8 7 7 7 6 6 6 6 7 6 7 9 9 10 7 6 6 6 4 6 14 27 24 19 17 16 17 23 22 18 17 16 14 13 10 10
6 5 6 5 6 6 4 5 5 5 7 7 6 5 7 6 8 7 6 7 6 7 7 6 6 8 8 10 9 9 9 10 9 7 6 6 5 5 10 24 27 19 14 14 16 12 11 15 18 20 17 14 14 12
9 9 9 10 9 7 7 5 4 5 6 7 6 6 6 6 7 5 6 7 7 6 8 8 8 9 10 10 10 8 8 10 10 8 5 6 5 4 8 20 27 19 14 12 12 13 16 15 12 10 10 14 16 17
7 8 9 5 5 9 12 9 6 6 7 6 8 7 10 12 10 9 12 11 10 10 9 11 11 11 9 9 9 9 8 10 11 9 7 6 5 4 6 14 24 26 17 10 8 8 11 14 16 17 15 13 12 12
5 8 9 9 7 4 6 8 7 5 0 4 8 10 13 11 13 12 11 11 13 14 13 14 13 11 10 8 9 10 9 9 12 11 7 6 6 5 4 6 15 26 27 17 11 9 8 8 10 13 17 19 20 20
9 10 9 8 9 11 11 12 11 11 9 9 9 11 10 11 11 9 8 11 12 10 12 12 11 11 10 10 9 12 10 10 12 12 9 7 5 5 5 4 7 15 24 28 20 12 9 9 7 6 6 7 11 16
9 8 5 6 8 14 18 21 21 19 17 17 16 21 20 15 15 16 16 12 9 8 13 10 10 10 10 10 12 13 11 9 12 13 10 7 6 5 5 5 4 7 14 21 27 25 15 10 9 8 7 6 8 7
24 32 33 35 9 -10 6 14 13 20 23 23 6 -8 3 12 12 19 15 19 16 13 14 10 11 8 5 15 16 12 11 8 12 14 12 8 8 6 5 4 4 4 6 13 17 22 28 22 14 10 9 7 8 7
11 -13 -14 19 28 9 4 10 10 8 7 5 10 15 15 16 13 15 13 16 14 12 11 12 6 4 18 17 12 9 -3 5 15 15 12 10 8 7 6 4 4 5 4 5 9 16 18 24 27 22 15 10 8 8
Height
5285 5295 5305 5318 5331 5350 5374 5397 5418 5438 5457 5475 5494 5515 5530 5541 5547 5556 5561 5569 5578 5582 5584 5591 5594 5595 5598 5601 5604 5607 5608 5609 5609 5607 5606 5604 5601 5598 5594 5591 5586 5582 5575 5569 5560 5554 5549 5540 5533 5529 5521 5512 5509 5504
5282 5290 5302 5314 5329 5351 5373 5396 5419 5437 5458 5474 5492 5511 5523 5534 5542 5549 5556 5564 5570 5572 5577 5580 5585 5587 5588 5591 5595 5596 5597 5598 5597 5596 5594 5591 5589 5585 5582 5578 5572 5566 5561 5554 5550 5543 5535 5527 5519 5515 5511 5507 5502 5498
5278 5287 5302 5313 5331 5351 5374 5398 5417 5436 5458 5476 5490 5505 5517 5527 5536 5544 5551 5557 5561 5565 5569 5573 5576 5578 5580 5584 5586 5587 5587 5587 5586 5584 5582 5579 5577 5574 5569 5564 5558 5554 5547 5543 5534 5525 5521 5516 5513 5508 5504 5501 5497 5494
5274 5287 5300 5317 5335 5355 5377 5398 5417 5439 5459 5473 5487 5499 5511 5522 5530 5536 5542 5548 5553 5560 5561 5564 5566 5569 5572 5575 5576 5577 5577 5577 5575 5573 5570 5568 5565 5561 5554 5550 5544 5539 5533 5527 5524 5515 5514 5508 5503 5499 5496 5494 5493 5492
5277 5290 5303 5320 5339 5360 5380 5399 5421 5440 5456 5470 5484 5497 5508 5516 5522 5528 5535 5540 5545 5552 5553 5554 5558 5561 5564 5566 5566 5567 5566 5565 5564 5562 5559 5556 5551 5547 5540 5535 5530 5525 5521 5515 5512 5506 5504 5500 5494 5490 5488 5485 5481 5482
5281 5294 5309 5327 5347 5365 5384 5405 5424 5439 5456 5471 5484 5494 5504 5509 5515 5521 5526 5531 5537 5541 5543 5546 5550 5553 5555 5557 5557 5557 5556 5554 5553 5550 5546 5542 5538 5534 5529 5523 5513 5512 5509 5505 5502 5496 5494 5490 5487 5483 5480 5477 5474 5472
5288 5302 5320 5338 5352 5370 5392 5411 5427 5442 5456 5469 5479 5490 5497 5504 5510 5516 5521 5526 5529 5533 5536 5540 5543 5546 5546 5546 5546 5545 5545 5543 5541 5538 5535 5530 5525 5522 5518 5512 5505 5501 5498 5494 5491 5488 5484 5479 5477 5472 5468 5466 5464 5462
5300 5317 5331 5346 5361 5381 5398 5413 5430 5443 5456 5469 5478 5486 5493 5499 5504 5509 5513 5519 5523 5527 5531 5533 5536 5537 5537 5536 5537 5536 5534 5533 5530 5526 5522 5518 5513 5509 5507 5502 5497 5492 5488 5483 5478 5475 5472 5467 5463 5459 5455 5453 5450 5447
5315 5328 5341 5355 5372 5391 5406 5419 5433 5446 5457 5467 5475 5482 5487 5494 5499 5504 5508 5513 5517 5523 5525 5527 5528 5528 5528 5528 5527 5527 5525 5523 5520 5517 5514 5509 5503 5499 5496 5492 5487 5482 5477 5472 5467 5462 5459 5454 5449 5444 5440 5437 5434 5430
5328 5339 5352 5367 5384 5400 5413 5424 5435 5446 5456 5464 5472 5479 5485 5491 5496 5499 5503 5507 5511 5514 5516 5517 5518 5519 5521 5521 5519 5520 5517 5515 5513 5509 5505 5501 5494 5490 5488 5482 5475 5470 5468 5462 5456 5450 5445 5441 5436 5429 5424 5420 5417 5414
5343 5355 5366 5378 5391 5406 5418 5428 5438 5447 5457 5466 5470 5476 5485 5489 5492 5496 5499 5503 5507 5508 5509 5509 5511 5513 5514 5514 5514 5512 5509 5506 5503 5500 5496 5490 5486 5482 5476 5471 5466 5460 5456 5450 5444 5438 5432 5426 5420 5415 5411 5406 5403 5400
5359 5369 5379 5390 5402 5412 5423 5433 5442 5452 5460 5466 5473 5477 5482 5486 5488 5492 5495 5498 5501 5502 5504 5505 5507 5508 5508 5507 5505 5504 5500 5497 5495 5492 5487 5482 5478 5474 5469 5463 5456 5450 5445 5439 5432 5425 5417 5411 5404 5400 5395 5391 5386 5382
5370 5381 5391 5400 5409 5417 5425 5433 5443 5452 5456 5463 5470 5476 5478 5482 5485 5487 5491 5494 5496 5497 5500 5498 5499 5498 5498 5500 5498 5496 5494 5491 5486 5484 5480 5476 5472 5467 5461 5453 5447 5440 5433 5423 5414 5405 5399 5393 5387 5381 5376 5371 5366 5362
5382 5390 5397 5406 5414 5423 5430 5437 5445 5450 5457 5464 5468 5472 5477 5478 5480 5484 5486 5487 5489 5490 5492 5494 5496 5496 5493 5492 5493 5491 5488 5484 5480 5478 5471 5469 5463 5457 5450 5442 5433 5423 5413 5403 5394 5386 5380 5373 5367 5360 5354 5349 5344 5340
5392 5399 5406 5412 5419 5426 5432 5439 5446 5449 5453 5459 5466 5470 5473 5474 5478 5482 5484 5485 5488 5488 5491 5493 5489 5487 5487 5488 5488 5486 5480 5475 5471 5470 5463 5459 5453 5445 5437 5427 5417 5407 5396 5386 5376 5366 5358 5351 5344 5338 5331 5326 5321 5316
5399 5406 5412 5418 5424 5431 5436 5440 5443 5449 5455 5461 5466 5467 5467 5472 5477 5476 5478 5484 5484 5484 5485 5485 5483 5483 5483 5483 5480 5479 5473 5470 5466 5462 5457 5451 5443 5434 5425 5416 5404 5393 5380 5368 5358 5347 5338 5329 5321 5315 5308 5303 5297 5292
5403 5408 5413 5418 5424 5430 5436 5443 5449 5452 5456 5459 5464 5467 5468 5470 5473 5475 5477 5478 5478 5480 5481 5478 5479 5478 5478 5478 5477 5473 5470 5466 5461 5455 5449 5442 5434 5426 5416 5404 5391 5377 5363 5351 5338 5327 5317 5308 5300 5293 5287 5282 5276 5271
5408 5415 5420 5425 5430 5435 5439 5442 5446 5451 5454 5457 5459 5461 5464 5466 5469 5472 5474 5476 5476 5476 5476 5478 5478 5477 5477 5474 5472 5469 5465 5460 5455 5450 5444 5436 5427 5417 5405 5391 5376 5360 5345 5331 5320 5309 5300 5291 5284 5277 5271 5265 5260 5255
5417 5421 5425 5430 5434 5437 5442 5445 5449 5452 5455 5459 5462 5466 5468 5470 5471 5473 5474 5475 5476 5477 5477 5477 5476 5474 5473 5471 5468 5464 5460 5456 5450 5444 5437 5428 5418 5407 5393 5378 5361 5344 5330 5317 5305 5295 5285 5277 5271 5264 5258 5253 5248 5243
5421 5425 5429 5432 5436 5440 5444 5448 5451 5455 5458 5461 5463 5464 5466 5468 5470 5472 5473 5474 5475 5475 5475 5474 5473 5472 5470 5467 5464 5460 5455 5451 5445 5437 5429 5419 5409 5396 5382 5365 5348 5333 5319 5305 5294 5284 5276 5268 5261 5255 5250 5245 5241 5237
5426 5430 5433 5437 5441 5445 5448 5452 5455 5457 5459 5461 5463 5466 5468 5469 5471 5472 5472 5473 5473 5473 5473 5472 5470 5468 5465 5462 5459 5455 5450 5445 5438 5431 5422 5412 5401 5387 5372 5355 5339 5325 5311 5299 5288 5280 5272 5265 5259 5253 5247 5242 5236 5231
5431 5435 5438 5441 5444 5447 5450 5454 5456 5458 5460 5463 5464 5466 5468 5469 5470 5471 5471 5471 5471 5470 5469 5467 5466 5463 5461 5457 5453 5448 5443 5438 5431 5423 5415 5405 5393 5379 5364 5347 5332 5319 5306 5295 5286 5278 5270 5263 5256 5250 5245 5239 5234 5229
5434 5437 5441 5444 5447 5450 5454 5455 5457 5459 5461 5463 5465 5466 5467 5468 5469 5469 5469 5468 5467 5466 5464 5462 5460 5458 5455 5451 5446 5441 5436 5430 5424 5417 5408 5398 5386 5373 5358 5343 5328 5316 5304 5293 5285 5277 5269 5262 5255 5250 5244 5239 5234 5228
5438 5441 5443 5446 5449 5451 5454 5455 5457 5459 5460 5462 5463 5464 5465 5465 5465 5465 5464 5463 5462 5460 5459 5457 5454 5451 5447 5443 5439 5434 5429 5424 5417 5410 5401 5392 5381 5369 5354 5339 5326 5315 5305 5294 5285 5277 5270 5263 5257 5251 5245 5240 5234 5229
5441 5443 5445 5446 5449 5451 5452 5454 5456 5457 5458 5459 5460 5460 5461 5461 5461 5460 5459 5458 5456 5454 5452 5450 5447 5444 5440 5436 5432 5428 5423 5417 5410 5403 5396 5387 5377 5364 5351 5337 5326 5315 5305 5296 5287 5278 5271 5264 5258 5252 5247 5241 5235 5230
5439 5441 5444 5445 5447 5449 5450 5451 5452 5453 5454 5455 5455 5455 5455 5455 5455 5454 5452 5451 5449 5447 5444 5442 5440 5437 5433 5430 5426 5421 5416 5410 5404 5397 5390 5382 5372 5361 5348 5335 5324 5315 5306 5298 5289 5281 5274 5267 5260 5254 5248 5242 5236 5230
5437 5439 5441 5442 5444 5445 5446 5447 5447 5448 5449 5449 5449 5449 5449 5448 5448 5447 5444 5443 5441 5439 5437 5435 5432 5429 5426 5423 5419 5414 5409 5403 5398 5392 5385 5378 5369 5358 5347 5335 5324 5316 5308 5300 5292 5285 5277 5270 5263 5257 5250 5244 5238 5232
5435 5436 5438 5439 5440 5440 5440 5440 5441 5441 5442 5442 5442 5441 5441 5440 5440 5438 5437 5435 5433 5431 5429 5427 5425 5422 5418 5415 5411 5407 5402 5397 5392 5387 5381 5374 5366 5356 5346 5335 5325 5316 5309 5302 5295 5288 5281 5273 5266 5259 5253 5247 5241 5234
5431 5431 5432 5433 5433 5434 5434 5435 5435 5435 5435 5435 5434 5432 5432 5430 5430 5429 5428 5426 5424 5423 5421 5419 5416 5414 5411 5408 5404 5400 5396 5392 5387 5382 5376 5370 5363 5355 5347 5337 5327 5318 5310 5303 5296 5290 5283 5276 5270 5263 5256 5250 5244 5237
5423 5424 5425 5425 5426 5426 5427 5427 5426 5426 5426 5425 5425 5424 5423 5422 5421 5419 5418 5417 5416 5414 5412 5410 5408 5406 5403 5400 5397 5393 5389 5385 5381 5376 5371 5366 5361 5355 5347 5338 5329 5320 5311 5303 5297 5291 5285 5279 5273 5267 5260 5253 5246 5238
5414 5415 5416 5416 5417 5418 5418 5417 5417 5416 5416 5415 5415 5415 5414 5413 5412 5410 5408 5407 5406 5405 5403 5401 5400 5398 5395 5393 5390 5386 5383 5379 5374 5370 5366 5362 5357 5352 5345 5338 5330 5321 5312 5304 5297 5290 5284 5279 5273 5268 5262 5255 5249 5243
5406 5407 5407 5407 5409 5410 5410 5410 5409 5408 5407 5406 5407 5407 5405 5404 5402 5401 5397 5398 5397 5396 5394 5393 5392 5390 5388 5385 5382 5379 5376 5373 5369 5365 5361 5357 5353 5348 5342 5336 5329 5322 5314 5306 5299 5291 5285 5279 5273 5268 5263 5258 5253 5247
5399 5400 5400 5400 5400 5401 5402 5402 5401 5400 5400 5399 5398 5397 5395 5394 5392 5392 5389 5389 5388 5387 5386 5385 5384 5382 5380 5378 5375 5372 5369 5366 5362 5359 5355 5351 5348 5344 5339 5334 5328 5322 5315 5308 5301 5294 5287 5280 5273 5268 5263 5259 5254 5249